| time (UTC) | temp C | wind direction | speed KPH | gust KPH | rain 1hr cm | rain 24hr cm | rain mn cm | humidity % | barometer mb |
| 20260503002230 | 24 | 221 | 0.0 | 4.8 | 0.00 | 0.00 | 0.00 | 30 | 1017.1 |
| 20260503001729 | 25 | 256 | 0.0 | 4.8 | 0.00 | 0.00 | 0.00 | 28 | 1017.0 |
| 20260503001423 | 25 | 272 | 0.0 | 4.8 | 0.00 | 0.00 | 0.00 | 27 | 1017.0 |
| 20260503000913 | 25 | 257 | 0.0 | 1.6 | 0.00 | 0.00 | 0.00 | 28 | 1017.0 |
| 20260503000153 | 25 | 257 | 0.0 | 1.6 | 0.00 | 0.00 | 0.00 | 29 | 1017.0 |
| 20260502235627 | 25 | 37 | 0.0 | 3.2 | 0.00 | 0.00 | 0.00 | 28 | 1016.9 |
| 20260502235058 | 25 | 266 | 0.0 | 4.8 | 0.00 | 0.00 | 0.00 | 28 | 1017.0 |
| 20260502234532 | 25 | 283 | 1.6 | 4.8 | 0.00 | 0.00 | 0.00 | 29 | 1017.1 |
| 20260502234030 | 25 | 345 | 1.6 | 4.8 | 0.00 | 0.00 | 0.00 | 26 | 1017.1 |
| 20260502233528 | 25 | 334 | 0.0 | 3.2 | 0.00 | 0.00 | 0.00 | 28 | 1017.1 |
| 20260502232955 | 25 | 1 | 1.6 | 6.4 | 0.00 | 0.00 | 0.00 | 28 | 1017.1 |
| 20260502232426 | 25 | 11 | 1.6 | 6.4 | 0.00 | 0.00 | 0.00 | 27 | 1017.2 |
| 20260502231902 | 25 | 342 | 1.6 | 4.8 | 0.00 | 0.00 | 0.00 | 27 | 1017.2 |
| 20260502231358 | 25 | 340 | 3.2 | 9.7 | 0.00 | 0.00 | 0.00 | 28 | 1017.2 |
| 20260502231117 | 25 | 39 | 1.6 | 9.7 | 0.00 | 0.00 | 0.00 | 26 | 1017.2 |
| 20260502230336 | 25 | 23 | 1.6 | 8.0 | 0.00 | 0.00 | 0.00 | 26 | 1017.2 |
| 20260502225758 | 25 | 340 | 1.6 | 8.0 | 0.00 | 0.00 | 0.00 | 26 | 1017.3 |
| 20260502225257 | 25 | 70 | 0.0 | 8.0 | 0.00 | 0.00 | 0.00 | 27 | 1017.3 |
| 20260502224744 | 25 | 4 | 0.0 | 8.0 | 0.00 | 0.00 | 0.00 | 26 | 1017.3 |
| 20260502224244 | 25 | 3 | 1.6 | 8.0 | 0.00 | 0.00 | 0.00 | 25 | 1017.4 |
| 20260502223717 | 25 | 231 | 1.6 | 9.7 | 0.00 | 0.00 | 0.00 | 25 | 1017.4 |
| 20260502223148 | 25 | 359 | 3.2 | 11.3 | 0.00 | 0.00 | 0.00 | 26 | 1017.4 |
| 20260502222646 | 25 | 344 | 3.2 | 11.3 | 0.00 | 0.00 | 0.00 | 26 | 1017.5 |
| 20260502222345 | 25 | 53 | 3.2 | 12.9 | 0.00 | 0.00 | 0.00 | 26 | 1017.5 |
| 20260502221815 | 25 | 10 | 1.6 | 12.9 | 0.00 | 0.00 | 0.00 | 26 | 1017.5 |
| 20260502221048 | 25 | 341 | 1.6 | 11.3 | 0.00 | 0.00 | 0.00 | 26 | 1017.4 |
| 20260502220522 | 25 | 338 | 1.6 | 8.0 | 0.00 | 0.00 | 0.00 | 26 | 1017.5 |
| 20260502220225 | 25 | 41 | 3.2 | 8.0 | 0.00 | 0.00 | 0.00 | 26 | 1017.5 |
| 20260502215456 | 25 | 328 | 3.2 | 9.7 | 0.00 | 0.00 | 0.00 | 25 | 1017.6 |
| 20260502214954 | 25 | 263 | 3.2 | 11.3 | 0.00 | 0.00 | 0.00 | 26 | 1017.6 |
| 20260502214709 | 25 | 95 | 1.6 | 11.3 | 0.00 | 0.00 | 0.00 | 28 | 1017.6 |
| 20260502213946 | 25 | 205 | 1.6 | 6.4 | 0.00 | 0.00 | 0.00 | 27 | 1017.7 |
| 20260502213421 | 25 | 217 | 1.6 | 6.4 | 0.00 | 0.00 | 0.00 | 28 | 1017.8 |
| 20260502212854 | 25 | 67 | 3.2 | 6.4 | 0.00 | 0.00 | 0.00 | 27 | 1017.9 |
| 20260502212329 | 25 | 39 | 3.2 | 9.7 | 0.00 | 0.00 | 0.00 | 27 | 1018.0 |
| 20260502211803 | 25 | 352 | 1.6 | 11.3 | 0.00 | 0.00 | 0.00 | 27 | 1018.0 |
| 20260502211240 | 25 | 32 | 1.6 | 11.3 | 0.00 | 0.00 | 0.00 | 27 | 1018.0 |
| 20260502210711 | 25 | 32 | 1.6 | 11.3 | 0.00 | 0.00 | 0.00 | 30 | 1018.2 |
| 20260502210147 | 25 | 18 | 1.6 | 11.3 | 0.00 | 0.00 | 0.00 | 26 | 1018.3 |
| 20260502205621 | 25 | 353 | 3.2 | 11.3 | 0.00 | 0.00 | 0.00 | 24 | 1018.3 |
| 20260502205607 | 25 | 7 | 3.2 | 11.3 | 0.00 | 0.00 | 0.00 | 29 | 1018.4 |
| 20260502204616 | 25 | 331 | 1.6 | 8.0 | 0.00 | 0.00 | 0.00 | 30 | 1018.5 |
| 20260502204048 | 25 | 255 | 1.6 | 9.7 | 0.00 | 0.00 | 0.00 | 30 | 1018.5 |
| 20260502203548 | 25 | 255 | 3.2 | 9.7 | 0.00 | 0.00 | 0.00 | 30 | 1018.5 |
| 20260502203028 | 25 | 272 | 4.8 | 14.5 | 0.00 | 0.00 | 0.00 | 30 | 1018.6 |
| 20260502202516 | 24 | 311 | 4.8 | 14.5 | 0.00 | 0.00 | 0.00 | 26 | 1018.6 |
| 20260502202244 | 25 | 347 | 3.2 | 11.3 | 0.00 | 0.00 | 0.00 | 27 | 1018.7 |
| 20260502201506 | 25 | 354 | 0.0 | 11.3 | 0.00 | 0.00 | 0.00 | 31 | 1018.8 |
| 20260502201007 | 25 | 122 | 1.6 | 9.7 | 0.00 | 0.00 | 0.00 | 30 | 1018.8 |
| 20260502200506 | 25 | 70 | 1.6 | 9.7 | 0.00 | 0.00 | 0.00 | 30 | 1018.8 |
| 20260502195943 | 25 | 235 | 0.0 | 9.7 | 0.00 | 0.00 | 0.00 | 33 | 1018.9 |
| 20260502195443 | 24 | 161 | 1.6 | 12.9 | 0.00 | 0.00 | 0.00 | 36 | 1019.0 |
| 20260502194920 | 23 | 340 | 4.8 | 12.9 | 0.00 | 0.00 | 0.00 | 27 | 1019.0 |
| 20260502194418 | 24 | 319 | 3.2 | 12.9 | 0.00 | 0.00 | 0.00 | 27 | 1019.1 |
| 20260502194125 | 24 | 13 | 1.6 | 8.0 | 0.00 | 0.00 | 0.00 | 27 | 1019.1 |
| 20260502193344 | 24 | 343 | 1.6 | 8.0 | 0.00 | 0.00 | 0.00 | 30 | 1019.2 |
| 20260502192829 | 23 | 335 | 3.2 | 16.1 | 0.00 | 0.00 | 0.00 | 28 | 1019.3 |
| 20260502192528 | 23 | 19 | 3.2 | 16.1 | 0.00 | 0.00 | 0.00 | 29 | 1019.3 |
| 20260502191759 | 24 | 339 | 1.6 | 11.3 | 0.00 | 0.00 | 0.00 | 29 | 1019.4 |
| 20260502191247 | 25 | 18 | 1.6 | 11.3 | 0.00 | 0.00 | 0.00 | 27 | 1019.4 |
| 20260502190724 | 24 | 220 | 1.6 | 11.3 | 0.00 | 0.00 | 0.00 | 31 | 1019.5 |
| 20260502190202 | 24 | 246 | 1.6 | 11.3 | 0.00 | 0.00 | 0.00 | 33 | 1019.5 |
| 20260502185702 | 23 | 302 | 3.2 | 19.3 | 0.00 | 0.00 | 0.00 | 27 | 1019.6 |
| 20260502185205 | 24 | 352 | 3.2 | 19.3 | 0.00 | 0.00 | 0.00 | 29 | 1019.6 |
| 20260502184908 | 24 | 131 | 1.6 | 9.7 | 0.00 | 0.00 | 0.00 | 29 | 1019.7 |
| 20260502184147 | 23 | 337 | 1.6 | 9.7 | 0.00 | 0.00 | 0.00 | 30 | 1019.8 |
| 20260502183648 | 24 | 60 | 1.6 | 8.0 | 0.00 | 0.00 | 0.00 | 31 | 1019.8 |
| 20260502183136 | 23 | 66 | 1.6 | 8.0 | 0.00 | 0.00 | 0.00 | 33 | 1019.9 |
| 20260502183118 | 23 | 113 | 1.6 | 12.9 | 0.00 | 0.00 | 0.00 | 32 | 1019.9 |
| 20260502182132 | 23 | 308 | 3.2 | 12.9 | 0.00 | 0.00 | 0.00 | 27 | 1020.0 |
| 20260502181631 | 23 | 126 | 3.2 | 12.9 | 0.00 | 0.00 | 0.00 | 34 | 1020.1 |
| 20260502181131 | 23 | 28 | 3.2 | 16.1 | 0.00 | 0.00 | 0.00 | 26 | 1020.2 |
| 20260502180607 | 23 | 51 | 1.6 | 16.1 | 0.00 | 0.00 | 0.00 | 28 | 1020.3 |
| 20260502170406 | 22 | 78 | 1.6 | 4.8 | 0.00 | 0.00 | 0.00 | 30 | 1021.0 |
| 20260502164334 | 21 | 34 | 3.2 | 11.3 | 0.00 | 0.00 | 0.00 | 33 | 1021.0 |
| 20260502163806 | 21 | 328 | 3.2 | 11.3 | 0.00 | 0.00 | 0.00 | 32 | 1021.0 |
| 20260502163518 | 21 | 79 | 3.2 | 11.3 | 0.00 | 0.00 | 0.00 | 33 | 1021.0 |
| 20260502162727 | 21 | 67 | 3.2 | 9.7 | 0.00 | 0.00 | 0.00 | 29 | 1020.9 |
| 20260502162201 | 21 | 68 | 3.2 | 14.5 | 0.00 | 0.00 | 0.00 | 33 | 1020.9 |
| 20260502161634 | 21 | 344 | 1.6 | 14.5 | 0.00 | 0.00 | 0.00 | 36 | 1021.0 |
| 20260502161108 | 21 | 43 | 3.2 | 11.3 | 0.00 | 0.00 | 0.00 | 36 | 1021.0 |
| 20260502160538 | 20 | 332 | 3.2 | 11.3 | 0.00 | 0.00 | 0.00 | 31 | 1021.0 |
| 20260502152100 | 19 | 332 | 1.6 | 6.4 | 0.00 | 0.00 | 0.00 | 42 | 1020.8 |
| 20260502151340 | 19 | 334 | 1.6 | 6.4 | 0.00 | 0.00 | 0.00 | 41 | 1020.7 |
| 20260502150835 | 18 | 318 | 1.6 | 6.4 | 0.00 | 0.00 | 0.00 | 43 | 1020.8 |
| 20260502150329 | 18 | 284 | 1.6 | 6.4 | 0.00 | 0.00 | 0.00 | 44 | 1020.7 |
| 20260502130325 | 12 | 285 | 0.0 | 1.6 | 0.00 | 0.00 | 0.00 | 82 | 1019.9 |
| 20260502123750 | 10 | 1 | 0.0 | 3.2 | 0.00 | 0.00 | 0.00 | 88 | 1019.5 |
| 20260502123221 | 10 | 281 | 0.0 | 0.0 | 0.00 | 0.00 | 0.00 | 88 | 1019.4 |
| 20260502122720 | 10 | 280 | 0.0 | 0.0 | 0.00 | 0.00 | 0.00 | 87 | 1019.3 |
| 20260502122150 | 10 | 280 | 0.0 | 0.0 | 0.00 | 0.00 | 0.00 | 87 | 1019.2 |
| 20260502121650 | 10 | 280 | 0.0 | 0.0 | 0.00 | 0.00 | 0.00 | 87 | 1019.1 |
| 20260502121410 | 10 | 280 | 0.0 | 0.0 | 0.00 | 0.00 | 0.00 | 87 | 1019.0 |
| 20260502120619 | 10 | 280 | 0.0 | 0.0 | 0.00 | 0.00 | 0.00 | 87 | 1018.9 |
| 20260502120118 | 10 | 280 | 0.0 | 0.0 | 0.00 | 0.00 | 0.00 | 86 | 1018.8 |
| 20260502115614 | 10 | 280 | 0.0 | 0.0 | 0.00 | 0.00 | 0.00 | 86 | 1018.9 |
| 20260502115112 | 10 | 280 | 0.0 | 0.0 | 0.00 | 0.00 | 0.00 | 86 | 1018.7 |
| 20260502114546 | 10 | 280 | 0.0 | 0.0 | 0.00 | 0.00 | 0.00 | 86 | 1018.6 |
| 20260502114018 | 10 | 280 | 0.0 | 0.0 | 0.00 | 0.00 | 0.00 | 86 | 1018.5 |
| 20260502113742 | 10 | 280 | 0.0 | 0.0 | 0.00 | 0.00 | 0.00 | 86 | 1018.5 |
| 20260502112948 | 10 | 280 | 0.0 | 0.0 | 0.00 | 0.00 | 0.00 | 85 | 1018.4 |
| 20260502112447 | 10 | 280 | 0.0 | 0.0 | 0.00 | 0.00 | 0.00 | 85 | 1018.4 |
| 20260502111919 | 10 | 280 | 0.0 | 0.0 | 0.00 | 0.00 | 0.00 | 85 | 1018.2 |
| 20260502111418 | 10 | 280 | 0.0 | 0.0 | 0.00 | 0.00 | 0.00 | 85 | 1018.2 |
| 20260502110853 | 10 | 280 | 0.0 | 0.0 | 0.00 | 0.00 | 0.00 | 85 | 1018.0 |
| 20260502110542 | 10 | 280 | 0.0 | 0.0 | 0.00 | 0.00 | 0.00 | 85 | 1018.2 |
| 20260502105752 | 10 | 280 | 0.0 | 0.0 | 0.00 | 0.00 | 0.00 | 85 | 1018.2 |
| 20260502105714 | 10 | 280 | 0.0 | 0.0 | 0.00 | 0.00 | 0.00 | 85 | 1018.0 |
| 20260502104659 | 10 | 280 | 0.0 | 0.0 | 0.00 | 0.00 | 0.00 | 85 | 1017.9 |
| 20260502104154 | 10 | 280 | 0.0 | 0.0 | 0.00 | 0.00 | 0.00 | 85 | 1017.9 |
| 20260502103652 | 10 | 8 | 0.0 | 0.0 | 0.00 | 0.00 | 0.00 | 84 | 1017.7 |
| 20260502103153 | 10 | 8 | 0.0 | 0.0 | 0.00 | 0.00 | 0.00 | 84 | 1017.6 |
| 20260502102623 | 10 | 8 | 0.0 | 0.0 | 0.00 | 0.00 | 0.00 | 83 | 1017.7 |
| 20260502102307 | 10 | 8 | 0.0 | 1.6 | 0.00 | 0.00 | 0.00 | 83 | 1017.6 |
| 20260502102147 | 10 | 8 | 0.0 | 1.6 | 0.00 | 0.00 | 0.00 | 83 | 1017.6 |
| 20260502101030 | 11 | 8 | 0.0 | 1.6 | 0.00 | 0.00 | 0.00 | 83 | 1017.6 |
| 20260502100501 | 11 | 330 | 0.0 | 1.6 | 0.00 | 0.00 | 0.00 | 82 | 1017.6 |
| 20260502100224 | 11 | 330 | 0.0 | 1.6 | 0.00 | 0.00 | 0.00 | 82 | 1017.7 |
| 20260502091309 | 10 | 268 | 0.0 | 0.0 | 0.00 | 0.00 | 0.00 | 84 | 1017.5 |
| 20260502090745 | 10 | 268 | 0.0 | 0.0 | 0.00 | 0.00 | 0.00 | 84 | 1017.5 |
| 20260502090243 | 10 | 268 | 0.0 | 0.0 | 0.00 | 0.00 | 0.00 | 84 | 1017.5 |
| 20260502071519 | 11 | 263 | 0.0 | 0.0 | 0.00 | 0.00 | 0.00 | 85 | 1017.5 |
| 20260502071005 | 11 | 264 | 0.0 | 0.0 | 0.00 | 0.00 | 0.00 | 85 | 1017.5 |
| 20260502070504 | 11 | 263 | 0.0 | 0.0 | 0.00 | 0.00 | 0.00 | 84 | 1017.6 |
| 20260502070004 | 11 | 264 | 0.0 | 0.0 | 0.00 | 0.00 | 0.00 | 84 | 1017.6 |
| 20260502065506 | 11 | 264 | 0.0 | 0.0 | 0.00 | 0.00 | 0.00 | 84 | 1017.7 |
| 20260502064942 | 11 | 264 | 0.0 | 0.0 | 0.00 | 0.00 | 0.00 | 84 | 1017.7 |
| 20260502064415 | 11 | 263 | 0.0 | 0.0 | 0.00 | 0.00 | 0.00 | 84 | 1017.8 |
| 20260502064128 | 11 | 264 | 0.0 | 0.0 | 0.00 | 0.00 | 0.00 | 84 | 1017.8 |
| 20260502063403 | 11 | 264 | 0.0 | 0.0 | 0.00 | 0.00 | 0.00 | 84 | 1017.8 |
| 20260502062902 | 11 | 264 | 0.0 | 0.0 | 0.00 | 0.00 | 0.00 | 84 | 1017.8 |
| 20260502062607 | 11 | 263 | 0.0 | 0.0 | 0.00 | 0.00 | 0.00 | 84 | 1017.7 |
| 20260502061822 | 11 | 263 | 0.0 | 0.0 | 0.00 | 0.00 | 0.00 | 84 | 1017.7 |
| 20260502061531 | 11 | 264 | 0.0 | 0.0 | 0.00 | 0.00 | 0.00 | 84 | 1017.7 |
| 20260502060748 | 11 | 264 | 0.0 | 0.0 | 0.00 | 0.00 | 0.00 | 84 | 1017.6 |
| 20260502060242 | 11 | 264 | 0.0 | 0.0 | 0.00 | 0.00 | 0.00 | 84 | 1017.6 |
| 20260502055741 | 11 | 264 | 0.0 | 0.0 | 0.00 | 0.00 | 0.00 | 84 | 1017.6 |
| 20260502055237 | 11 | 264 | 0.0 | 0.0 | 0.00 | 0.00 | 0.00 | 83 | 1017.6 |
| 20260502054735 | 11 | 264 | 0.0 | 0.0 | 0.00 | 0.00 | 0.00 | 84 | 1017.6 |
| 20260502054232 | 11 | 264 | 0.0 | 0.0 | 0.00 | 0.00 | 0.00 | 83 | 1017.6 |
| 20260502053731 | 12 | 264 | 0.0 | 0.0 | 0.00 | 0.00 | 0.00 | 83 | 1017.6 |
| 20260502053231 | 12 | 264 | 0.0 | 0.0 | 0.00 | 0.00 | 0.00 | 83 | 1017.6 |
| 20260502052710 | 12 | 264 | 0.0 | 0.0 | 0.00 | 0.00 | 0.00 | 82 | 1017.7 |
| 20260502052209 | 12 | 264 | 0.0 | 0.0 | 0.00 | 0.00 | 0.00 | 83 | 1017.7 |
| 20260502051644 | 12 | 264 | 0.0 | 0.0 | 0.00 | 0.00 | 0.00 | 83 | 1017.7 |
| 20260502051121 | 12 | 264 | 0.0 | 0.0 | 0.00 | 0.00 | 0.00 | 83 | 1017.8 |
| 20260502050618 | 12 | 133 | 0.0 | 0.0 | 0.00 | 0.00 | 0.00 | 83 | 1017.7 |
| 20260502050114 | 12 | 133 | 0.0 | 0.0 | 0.00 | 0.00 | 0.00 | 83 | 1017.6 |
| 20260502045610 | 12 | 133 | 0.0 | 0.0 | 0.00 | 0.00 | 0.00 | 82 | 1017.6 |
| 20260502045047 | 12 | 133 | 0.0 | 0.0 | 0.00 | 0.00 | 0.00 | 82 | 1017.5 |
| 20260502044518 | 12 | 133 | 0.0 | 0.0 | 0.00 | 0.00 | 0.00 | 82 | 1017.5 |
| 20260502044017 | 12 | 133 | 0.0 | 0.0 | 0.00 | 0.00 | 0.00 | 82 | 1017.5 |
| 20260502043452 | 12 | 133 | 0.0 | 0.0 | 0.00 | 0.00 | 0.00 | 82 | 1017.6 |
| 20260502042925 | 12 | 133 | 0.0 | 0.0 | 0.00 | 0.00 | 0.00 | 81 | 1017.6 |
| 20260502042416 | 12 | 133 | 0.0 | 0.0 | 0.00 | 0.00 | 0.00 | 81 | 1017.6 |
| 20260502041914 | 12 | 133 | 0.0 | 0.0 | 0.00 | 0.00 | 0.00 | 80 | 1017.5 |
| 20260502041346 | 12 | 133 | 0.0 | 0.0 | 0.00 | 0.00 | 0.00 | 80 | 1017.4 |
| 20260502040845 | 12 | 133 | 0.0 | 0.0 | 0.00 | 0.00 | 0.00 | 79 | 1017.4 |
| 20260502040316 | 12 | 133 | 0.0 | 0.0 | 0.00 | 0.00 | 0.00 | 78 | 1017.4 |
| 20260502035813 | 13 | 133 | 0.0 | 0.0 | 0.00 | 0.00 | 0.00 | 78 | 1017.5 |
| 20260502035248 | 13 | 133 | 0.0 | 0.0 | 0.00 | 0.00 | 0.00 | 78 | 1017.5 |
| 20260502035208 | 13 | 133 | 0.0 | 0.0 | 0.00 | 0.00 | 0.00 | 78 | 1017.5 |
| 20260502034153 | 13 | 133 | 0.0 | 0.0 | 0.00 | 0.00 | 0.00 | 77 | 1017.6 |
| 20260502033654 | 13 | 133 | 0.0 | 0.0 | 0.00 | 0.00 | 0.00 | 77 | 1017.5 |
| 20260502033125 | 13 | 133 | 0.0 | 0.0 | 0.00 | 0.00 | 0.00 | 77 | 1017.5 |
| 20260502032623 | 13 | 133 | 0.0 | 0.0 | 0.00 | 0.00 | 0.00 | 76 | 1017.5 |
| 20260502032057 | 14 | 133 | 0.0 | 0.0 | 0.00 | 0.00 | 0.00 | 76 | 1017.3 |
| 20260502031528 | 14 | 133 | 0.0 | 0.0 | 0.00 | 0.00 | 0.00 | 75 | 1017.3 |
| 20260502031026 | 14 | 133 | 0.0 | 0.0 | 0.00 | 0.00 | 0.00 | 73 | 1017.2 |
| 20260502030506 | 14 | 133 | 0.0 | 0.0 | 0.00 | 0.00 | 0.00 | 73 | 1017.2 |
| 20260502030005 | 14 | 133 | 0.0 | 0.0 | 0.00 | 0.00 | 0.00 | 73 | 1017.2 |
| 20260502025503 | 14 | 133 | 0.0 | 0.0 | 0.00 | 0.00 | 0.00 | 72 | 1017.3 |
| 20260502025220 | 14 | 133 | 0.0 | 0.0 | 0.00 | 0.00 | 0.00 | 72 | 1017.2 |
| 20260502024453 | 15 | 133 | 0.0 | 0.0 | 0.00 | 0.00 | 0.00 | 72 | 1017.1 |
| 20260502023925 | 15 | 133 | 0.0 | 0.0 | 0.00 | 0.00 | 0.00 | 71 | 1017.1 |
| 20260502023421 | 15 | 133 | 0.0 | 0.0 | 0.00 | 0.00 | 0.00 | 72 | 1017.1 |
| 20260502022921 | 15 | 133 | 0.0 | 0.0 | 0.00 | 0.00 | 0.00 | 71 | 1017.0 |
| 20260502022353 | 15 | 133 | 0.0 | 0.0 | 0.00 | 0.00 | 0.00 | 70 | 1017.0 |
| 20260502021852 | 15 | 133 | 0.0 | 0.0 | 0.00 | 0.00 | 0.00 | 69 | 1016.9 |
| 20260502021322 | 15 | 133 | 0.0 | 0.0 | 0.00 | 0.00 | 0.00 | 69 | 1016.8 |
| 20260502021020 | 15 | 133 | 0.0 | 0.0 | 0.00 | 0.00 | 0.00 | 69 | 1016.7 |
| 20260502020738 | 15 | 133 | 0.0 | 0.0 | 0.00 | 0.00 | 0.00 | 69 | 1016.6 |
| 20260502015721 | 15 | 133 | 0.0 | 1.6 | 0.00 | 0.00 | 0.00 | 69 | 1016.4 |
| 20260502015416 | 15 | 133 | 0.0 | 1.6 | 0.00 | 0.00 | 0.00 | 69 | 1016.2 |
| 20260502014648 | 15 | 141 | 0.0 | 1.6 | 0.00 | 0.00 | 0.00 | 69 | 1016.2 |
| 20260502014146 | 15 | 141 | 0.0 | 1.6 | 0.00 | 0.00 | 0.00 | 70 | 1016.0 |
| 20260502013621 | 15 | 127 | 0.0 | 1.6 | 0.00 | 0.00 | 0.00 | 70 | 1015.9 |
| 20260502013348 | 15 | 127 | 0.0 | 3.2 | 0.00 | 0.00 | 0.00 | 69 | 1015.8 |
| 20260502012611 | 15 | 127 | 0.0 | 3.2 | 0.00 | 0.00 | 0.00 | 69 | 1015.7 |
| 20260502012109 | 15 | 121 | 0.0 | 1.6 | 0.00 | 0.00 | 0.00 | 69 | 1015.6 |
| 20260502011545 | 15 | 121 | 0.0 | 1.6 | 0.00 | 0.00 | 0.00 | 68 | 1015.6 |
| 20260502011017 | 15 | 139 | 0.0 | 1.6 | 0.00 | 0.00 | 0.00 | 68 | 1015.6 |
| 20260502010513 | 15 | 120 | 0.0 | 1.6 | 0.00 | 0.00 | 0.00 | 67 | 1015.5 |
| 20260502010013 | 16 | 117 | 0.0 | 1.6 | 0.00 | 0.00 | 0.00 | 67 | 1015.4 |
| 20260502005515 | 16 | 115 | 0.0 | 0.0 | 0.00 | 0.00 | 0.00 | 67 | 1015.4 |
| 20260502004950 | 16 | 115 | 0.0 | 0.0 | 0.00 | 0.00 | 0.00 | 67 | 1015.4 |
| 20260502004425 | 16 | 115 | 0.0 | 0.0 | 0.00 | 0.00 | 0.00 | 65 | 1015.3 |
| 20260502003859 | 16 | 115 | 0.0 | 0.0 | 0.00 | 0.00 | 0.00 | 65 | 1015.3 |
| 20260502003622 | 16 | 115 | 0.0 | 1.6 | 0.00 | 0.00 | 0.00 | 64 | 1015.3 |
| 20260502002832 | 16 | 115 | 0.0 | 1.6 | 0.00 | 0.00 | 0.00 | 64 | 1015.3 |